TimeCDT,TemperatureF,Dew PointF,Humidity,Sea Level PressureIn,VisibilityMPH,Wind Direction,Wind SpeedMPH,Gust SpeedMPH,PrecipitationIn,Events,Conditions,WindDirDegrees,DateUTC
12:13 AM,71.6,66.2,83,29.96,10.0,SSE,3.5,-,N/A,,Mostly Cloudy,160,2013-08-26 05:13:00
12:32 AM,71.6,64.4,78,29.95,10.0,Calm,Calm,-,N/A,,Overcast,0,2013-08-26 05:32:00
12:53 AM,71.6,66.2,83,29.95,10.0,Calm,Calm,-,N/A,,Mostly Cloudy,0,2013-08-26 05:53:00
1:13 AM,71.6,66.2,83,29.95,10.0,Calm,Calm,-,N/A,,Scattered Clouds,0,2013-08-26 06:13:00
1:32 AM,69.8,64.4,83,29.94,10.0,SE,3.5,-,N/A,,Scattered Clouds,130,2013-08-26 06:32:00
1:53 AM,66.2,64.4,94,29.94,10.0,Calm,Calm,-,N/A,,Clear,0,2013-08-26 06:53:00
2:12 AM,66.2,64.4,94,29.94,10.0,Calm,Calm,-,N/A,,Clear,0,2013-08-26 07:12:00
2:33 AM,66.2,64.4,94,29.95,10.0,Calm,Calm,-,N/A,,Clear,0,2013-08-26 07:33:00
2:53 AM,66.2,64.4,94,29.95,10.0,Calm,Calm,-,N/A,,Clear,0,2013-08-26 07:53:00
3:12 AM,66.2,62.6,88,29.95,10.0,Calm,Calm,-,N/A,,Clear,0,2013-08-26 08:12:00
3:33 AM,64.4,62.6,94,29.95,10.0,Calm,Calm,-,N/A,,Clear,0,2013-08-26 08:33:00
3:53 AM,64.4,62.6,94,29.95,10.0,Calm,Calm,-,N/A,,Clear,0,2013-08-26 08:53:00
4:12 AM,64.4,62.6,94,29.96,10.0,Calm,Calm,-,N/A,,Clear,0,2013-08-26 09:12:00
4:33 AM,62.6,62.6,100,29.96,10.0,Calm,Calm,-,N/A,,Clear,0,2013-08-26 09:33:00
4:53 AM,62.6,60.8,94,29.96,10.0,Calm,Calm,-,N/A,,Clear,0,2013-08-26 09:53:00
5:12 AM,62.6,60.8,94,29.97,10.0,Calm,Calm,-,N/A,,Clear,0,2013-08-26 10:12:00
5:33 AM,62.6,60.8,94,29.96,10.0,Calm,Calm,-,N/A,,Clear,0,2013-08-26 10:33:00
5:53 AM,62.6,60.8,94,29.97,10.0,Calm,Calm,-,N/A,,Clear,0,2013-08-26 10:53:00
6:12 AM,60.8,59.0,94,29.98,10.0,Calm,Calm,-,N/A,,Clear,0,2013-08-26 11:12:00
6:33 AM,60.8,59.0,94,29.98,7.0,Calm,Calm,-,N/A,,Clear,0,2013-08-26 11:33:00
6:53 AM,62.6,60.8,94,29.99,10.0,Calm,Calm,-,N/A,,Clear,0,2013-08-26 11:53:00
7:12 AM,62.6,60.8,94,29.99,10.0,Calm,Calm,-,N/A,,Clear,0,2013-08-26 12:12:00
7:33 AM,62.6,60.8,94,29.99,10.0,Calm,Calm,-,N/A,,Clear,0,2013-08-26 12:33:00
7:53 AM,66.2,62.6,88,29.99,10.0,Calm,Calm,-,N/A,,Clear,0,2013-08-26 12:53:00
8:12 AM,68.0,64.4,88,30.00,10.0,Calm,Calm,-,N/A,,Clear,0,2013-08-26 13:12:00
8:33 AM,71.6,64.4,78,29.99,10.0,Calm,Calm,-,N/A,,Clear,0,2013-08-26 13:33:00
8:50 AM,71.6,66.2,83,30.00,10.0,Calm,Calm,-,N/A,,Clear,0,2013-08-26 13:50:00
9:13 AM,73.4,66.2,78,30.00,10.0,Calm,Calm,-,N/A,,Clear,0,2013-08-26 14:13:00
9:33 AM,73.4,66.2,78,30.00,10.0,Calm,Calm,-,N/A,,Clear,0,2013-08-26 14:33:00
9:52 AM,75.2,68.0,78,30.00,10.0,Calm,Calm,-,N/A,,Clear,0,2013-08-26 14:52:00
10:13 AM,78.8,66.2,65,30.00,10.0,Calm,Calm,-,N/A,,Clear,0,2013-08-26 15:13:00
10:33 AM,80.6,64.4,58,30.00,10.0,Calm,Calm,-,N/A,,Clear,0,2013-08-26 15:33:00
10:53 AM,80.6,64.4,58,30.00,10.0,Calm,Calm,-,N/A,,Clear,0,2013-08-26 15:53:00
11:13 AM,80.6,64.4,58,29.99,10.0,Calm,Calm,-,N/A,,Clear,0,2013-08-26 16:13:00
11:33 AM,82.4,64.4,54,30.00,10.0,ESE,4.6,-,N/A,,Clear,110,2013-08-26 16:33:00
11:53 AM,82.4,64.4,54,29.99,10.0,Calm,Calm,-,N/A,,Clear,0,2013-08-26 16:53:00
12:12 PM,84.2,64.4,51,29.99,10.0,Calm,Calm,-,N/A,,Clear,0,2013-08-26 17:12:00
12:33 PM,84.2,64.4,51,29.98,10.0,ESE,5.8,-,N/A,,Clear,110,2013-08-26 17:33:00
12:53 PM,84.2,62.6,48,29.98,10.0,Calm,Calm,-,N/A,,Clear,0,2013-08-26 17:53:00
1:12 PM,86.0,62.6,45,29.97,10.0,ENE,3.5,-,N/A,,Clear,60,2013-08-26 18:12:00
1:33 PM,87.8,62.6,43,29.97,10.0,SE,4.6,-,N/A,,Clear,130,2013-08-26 18:33:00
1:53 PM,86.0,62.6,45,29.96,10.0,Calm,Calm,-,N/A,,Clear,0,2013-08-26 18:53:00
2:12 PM,87.8,60.8,40,29.95,10.0,Calm,Calm,-,N/A,,Clear,0,2013-08-26 19:12:00
2:33 PM,86.0,62.6,45,29.95,10.0,SW,3.5,-,N/A,,Clear,220,2013-08-26 19:33:00
2:53 PM,87.8,59.0,38,29.95,10.0,Calm,Calm,-,N/A,,Clear,0,2013-08-26 19:53:00
3:13 PM,87.8,62.6,43,29.95,10.0,Calm,Calm,-,N/A,,Clear,0,2013-08-26 20:13:00
3:33 PM,87.8,64.4,46,29.94,10.0,Calm,Calm,-,N/A,,Clear,0,2013-08-26 20:33:00
3:52 PM,84.2,64.4,51,29.94,10.0,South,3.5,-,N/A,,Clear,190,2013-08-26 20:52:00
4:13 PM,84.2,66.2,55,29.94,10.0,Calm,Calm,-,N/A,,Clear,0,2013-08-26 21:13:00
4:33 PM,84.2,66.2,55,29.93,10.0,Calm,Calm,-,N/A,,Clear,0,2013-08-26 21:33:00
4:52 PM,84.2,66.2,55,29.93,10.0,Calm,Calm,-,N/A,,Clear,0,2013-08-26 21:52:00
5:13 PM,84.2,64.4,51,29.92,10.0,NE,3.5,-,N/A,,Clear,50,2013-08-26 22:13:00
5:32 PM,84.2,66.2,55,29.91,10.0,NE,3.5,-,N/A,,Clear,40,2013-08-26 22:32:00
5:53 PM,84.2,64.4,51,29.90,10.0,NE,4.6,-,N/A,,Clear,40,2013-08-26 22:53:00
6:13 PM,84.2,62.6,48,29.92,10.0,ENE,3.5,-,N/A,,Clear,60,2013-08-26 23:13:00
6:32 PM,84.2,62.6,48,29.92,10.0,East,3.5,-,N/A,,Clear,80,2013-08-26 23:32:00
6:53 PM,82.4,68.0,62,29.93,10.0,SSE,5.8,-,N/A,,Scattered Clouds,160,2013-08-26 23:53:00
7:13 PM,80.6,69.8,70,29.93,10.0,SSE,4.6,-,N/A,,Scattered Clouds,160,2013-08-27 00:13:00
7:32 PM,78.8,68.0,69,29.94,10.0,SSE,8.1,-,N/A,,Clear,160,2013-08-27 00:32:00
7:52 PM,78.8,66.2,65,29.94,10.0,South,15.0,19.6,N/A,,Scattered Clouds,180,2013-08-27 00:52:00
8:13 PM,77.0,64.4,65,29.92,10.0,South,6.9,-,N/A,,Mostly Cloudy,190,2013-08-27 01:13:00
8:33 PM,75.2,66.2,73,29.92,10.0,SSE,3.5,-,N/A,,Clear,160,2013-08-27 01:33:00
8:53 PM,75.2,64.4,69,29.93,10.0,SSE,4.6,-,N/A,,Clear,150,2013-08-27 01:53:00
9:12 PM,73.4,64.4,73,29.93,10.0,SE,3.5,-,N/A,,Clear,140,2013-08-27 02:12:00
9:33 PM,73.4,64.4,73,29.92,10.0,Calm,Calm,-,N/A,Rain,Light Rain,0,2013-08-27 02:33:00
9:53 PM,73.4,64.4,73,29.92,10.0,Calm,Calm,-,N/A,,Scattered Clouds,0,2013-08-27 02:53:00
10:12 PM,73.4,64.4,73,29.92,10.0,Calm,Calm,-,N/A,,Mostly Cloudy,0,2013-08-27 03:12:00
10:33 PM,71.6,64.4,78,29.91,10.0,SE,5.8,-,N/A,Rain,Light Rain,140,2013-08-27 03:33:00
10:53 PM,69.8,66.2,88,29.92,10.0,WNW,3.5,-,N/A,Rain,Light Rain,290,2013-08-27 03:53:00
11:12 PM,69.8,66.2,88,29.92,5.0,South,3.5,-,0.01,Rain,Rain,190,2013-08-27 04:12:00
11:33 PM,69.8,66.2,88,29.91,10.0,South,4.6,-,0.04,Rain,Light Rain,190,2013-08-27 04:33:00
11:53 PM,69.8,66.2,88,29.92,10.0,SSW,3.5,-,0.05,Rain,Light Rain,200,2013-08-27 04:53:00